Location: Colonia Mina de C?rbuni
(46.1667°N, 22.7167°E)
Time: 07:38:27
(UTC+00:00)

Tiros 1 - Pass Details

Date: 26 April 2024
Orbit: 624 x 657 km, 48.4° (Epoch: 26 May)

Event Time Altitude Azimuth Distance (km) Brightness Sun altitude
Rises 18:29:50 0° 186° (S) 2,946 10.3 -9.8°
Reaches altitude 10° 18:33:33 10° 157° (SSE) 2,033 9.2 -10.4°
Enters shadow 18:34:10 11° 149° (SSE) 1,951 9.1 -10.5°
